Weather History for Salt Lake City, UT

Change the Weather History Date:

Friday, March 29, 2013

  Actual Average Record
Temperature  
Mean Temperature 56 °F 47 °F  
Max Temperature 66 °F 57 °F 75 °F (1968)
Min Temperature 46 °F 36 °F 17 °F (1975)
Degree Days  
Heating Degree Days 9 18  
Month to date heating degree days 606 626  
Since 1 July heating degree days 4838 4882  
Cooling Degree Days 0 0  
Month to date cooling degree days 0 0  
Year to date cooling degree days 0 0  
Growing Degree Days 6 (Base 50)    
Moisture  
Dew Point 35 °F    
Average Humidity 48    
Maximum Humidity 66    
Minimum Humidity 29    
Precipitation  
Precipitation 0.00 in 0.06 in 0.88 in (1915)
Month to date precipitation 0.71 1.66  
Year to date precipitation 2.91 4.16  
Snow  
Snow 0.00 in 0.20 in 8.20 in (1967)
Month to date snowfall 2.7 6.1  
Since 1 July snowfall 69.8 51.5  
Snow Depth 0.00 in    
Sea Level Pressure  
Sea Level Pressure 30.07 in    
Wind  
Wind Speed 4 mph (NNE)    
Max Wind Speed 15 mph    
Max Gust Speed 17 mph    
Visibility 10 miles    
Events      
T = Trace of Precipitation, MM = Missing Value Source: NWS Daily Summary

Daily Weather History Graph

Daily Weather History Graph

Search for Another Location

Airport:

Trip Planner

Search our weather history database for the weather conditions in past years. The results will help you decide how hot, cold, wet, or windy it might be!

Date:

Astronomy

Mar. 29, 2013 Rise Set
Actual Time 7:15 AM MDT 7:49 PM MDT
Civil Twilight 6:48 AM MDT 8:17 PM MDT
Nautical Twilight 6:15 AM MDT 8:49 PM MDT
Astronomical Twilight 5:42 AM MDT 9:23 PM MDT
Moon 10:55 PM MDT (3/29) 8:26 AM MDT (3/29)
Length of Visible Light 13h 29m
Length of Day
12h 34m
Waning Gibbous, 93% of the Moon is Illuminated
Mar 29
Waning Gibbous
Apr 2
Last Quarter
Apr 10
New
Apr 18
First Quarter
Apr 25
Full

Hourly Weather History & Observations

Time (MDT) Temp. Windchill Dew Point Humidity Pressure Visibility Wind Dir Wind Speed Gust Speed Precip Events Conditions
12:53 AM 51.1 °F - 39.0 °F 63% 29.99 in 10.0 mi Calm Calm - N/A   Mostly Cloudy
1:53 AM 54.0 °F - 32.0 °F 43% 30.00 in 10.0 mi Calm Calm - N/A   Mostly Cloudy
2:53 AM 51.1 °F - 33.1 °F 50% 30.00 in 10.0 mi SSE 8.1 mph - N/A   Mostly Cloudy
3:53 AM 50.0 °F - 32.0 °F 50% 30.01 in 10.0 mi South 4.6 mph - N/A   Scattered Clouds
4:53 AM 50.0 °F - 33.1 °F 52% 30.02 in 10.0 mi SSW 3.5 mph - N/A   Mostly Cloudy
5:53 AM 46.0 °F 44.8 °F 36.0 °F 68% 30.05 in 10.0 mi North 3.5 mph - N/A   Mostly Cloudy
6:53 AM 46.9 °F - 36.0 °F 66% 30.06 in 10.0 mi Calm Calm - N/A   Scattered Clouds
7:53 AM 48.9 °F - 37.0 °F 64% 30.10 in 10.0 mi Calm Calm - N/A   Mostly Cloudy
8:53 AM 52.0 °F - 39.9 °F 63% 30.11 in 10.0 mi SSE 3.5 mph - N/A   Mostly Cloudy
9:53 AM 55.0 °F - 39.0 °F 55% 30.12 in 10.0 mi Calm Calm - N/A   Scattered Clouds
10:53 AM 59.0 °F - 37.0 °F 44% 30.12 in 10.0 mi Calm Calm - N/A   Scattered Clouds
11:53 AM 62.1 °F - 37.0 °F 39% 30.12 in 10.0 mi Variable 5.8 mph - N/A   Scattered Clouds
12:53 PM 63.0 °F - 37.0 °F 38% 30.11 in 10.0 mi Variable 4.6 mph - N/A   Mostly Cloudy
1:53 PM 64.9 °F - 36.0 °F 34% 30.09 in 10.0 mi NW 8.1 mph - N/A   Scattered Clouds
2:53 PM 64.9 °F - 34.0 °F 32% 30.09 in 10.0 mi NNE 4.6 mph - N/A   Scattered Clouds
3:53 PM 66.0 °F - 34.0 °F 30% 30.07 in 10.0 mi North 9.2 mph 17.3 mph N/A   Scattered Clouds
4:53 PM 66.0 °F - 35.1 °F 32% 30.07 in 10.0 mi North 6.9 mph - N/A   Scattered Clouds
5:53 PM 64.9 °F - 33.1 °F 31% 30.06 in 10.0 mi North 5.8 mph - N/A   Mostly Cloudy
6:53 PM 63.0 °F - 35.1 °F 35% 30.07 in 10.0 mi North 6.9 mph - N/A   Scattered Clouds
7:53 PM 60.1 °F - 34.0 °F 38% 30.06 in 10.0 mi North 4.6 mph - N/A   Scattered Clouds
8:53 PM 57.0 °F - 32.0 °F 39% 30.07 in 10.0 mi Calm Calm - N/A   Scattered Clouds
9:53 PM 55.0 °F - 33.1 °F 43% 30.08 in 10.0 mi South 5.8 mph - N/A   Partly Cloudy
10:53 PM 52.0 °F - 30.9 °F 45% 30.09 in 10.0 mi SSE 6.9 mph - N/A   Clear
11:53 PM 50.0 °F - 30.9 °F 48% 30.09 in 10.0 mi SE 6.9 mph - N/A   Partly Cloudy